Location: Grasslands National Park East Block
(49.0708°N, 106.5295°W)
Time: 05:31:25
(UTC-06:00)

SR - Pass Details

Date: 22 October 2019
Orbit: 574 x 882 km, 66.7° (Epoch: 11 November)

Event Time Altitude Azimuth Distance (km) Brightness Sun altitude
Exits shadow 06:00:40 - 327° (NNW) 3,118 ? -16.5°
Reaches altitude 10° 06:02:26 10° 333° (NNW) 2,507 ? -16.2°
Maximum altitude 06:07:55 40° 42° (NE) 1,284 ? -15.3°
Drops below altitude 10° 06:13:28 10° 111° (ESE) 2,535 ? -14.4°
Sets 06:16:07 0° 119° (ESE) 3,458 ? -14.0°
